DELTA 1 DEB, 13537

Orbit data source: Space-Track

DELTA 1 DEB, 13537 is space debris in SSO originally from a launch on Thu, 29 Jul 1976 UTC launched from the Air Force Western Test Range (AFWTR). Debris objects in space refer to the collection of defunct objects orbiting the Earth. Examples of debris include non-operational satellites, rocket bodies, and fragments generated from explosions, collisions, or faulty payload assembly.

Loading next visibility...
Identifier
13537, 1976-077EK
Orbit
SSO
Country
Flag of USUS
Related business
Manufacturer
Unknown
Mission
Spacecraft
Bus & Motor
Unknown
Mass
Unknown
Launch date (UTC)
1976-07-29 (49 years ago)
Launch vehicle
Unknown
Launch site
Air Force Western Test Range (AFWTR)
Object type
Payload
Rocket body
Debris
Shape & HBR
Unknown shape, 0.1 m
Radar Cross Section
Small (<0.1 m²)

Expand to show TLE details & history
Last TLE update: 2 days ago

TLE from 2 days ago
0 DELTA 1 DEB
1 13537U 76077EK  25347.55489042  .00000002  00000-0  42293-3 0  9999
2 13537 102.5330 327.4773 0075255 263.0429 213.5418 12.27233339110492
Epoch: 2025-12-13T13:19Z
TLE epoch observation values (Epoch: 2025-12-13T13:19:02.532Z)
Latitude
61.31651°
Longitude
-110.91287°
Altitude
1,621.394 km
Speed
7.043 km/s
True Right ascension
11h 25m 18s
True Declination
61° 11' 14"
Sunlit
Object was in daylight at epoch
Visualization orbit readout
Latitude
Unknown
Longitude
Unknown
Altitude
Unknown
Speed
Unknown
Apparent Right ascension
Unknown
Apparent Declination
Unknown
Sunlit
N/A
Visualization observer readout
Local Sidereal Time
02:15:17
Azimuth
Unknown
Elevation
Unknown
Doppler factor
Unknown
Orbital elements
Apogee altitude
1,618.544 km
Perigee altitude
1,499.085 km
Semi-major axis
7,936.951 km
Eccentricity
0.00753
Inclination
102.533°
RAAN
327.4773°
Arg. of periapsis
263.0429°
True anomaly
213.06902°
Mean anomaly
213.5418°
Eccentric anomaly
213.30504°
Mean motion
3.06946 °/min
Orbital period
117.28 mins
BSTAR
0.00042293
Loading maneuver chart data...
Computing Atmospheric mass density...
Loading historical data...
Loading historical data...
Loading historical data...
Loading historical data...
Loading historical data...
Loading historical data...
Loading historical data...

Documentation

Showing up to 5 results
|